Location: Oshawa
(43.9000°N, 78.8670°W)
Time: 17:04:23
(UTC-04:00)

Iridium 98 - Visible Passes

Search period start: 01 September 2014 00:00
Search period end: 11 September 2014 00:00
Orbit: 776 x 779 km, 86.4° (Epoch: 01 September)

Date Brightness Start Highest point End Pass type
(mag) Time Alt. Az. Time Alt. Az. Time Alt. Az.
01 Sep 7.8 21:03:06 10° NNW 21:07:27 27° W 21:11:47 10° SW visible
02 Sep 6.7 20:29:07 10° NNW 20:34:07 49° W 20:39:06 10° SSW visible
03 Sep 8.9 21:39:23 10° WNW 21:40:31 11° WNW 21:41:39 10° W visible
04 Sep 8.4 21:03:43 10° NW 21:07:23 20° W 21:11:02 10° SW visible
05 Sep 7.4 20:29:27 10° NNW 20:34:07 34° W 20:38:46 10° SSW visible
07 Sep 8.7 21:04:43 10° NW 21:07:16 14° WNW 21:09:48 10° WSW visible
08 Sep 8.1 20:29:56 10° NNW 20:34:05 25° W 20:38:12 10° SW visible
